Погода в Давадми

Саудовская Аравия     24°30′53″N   44°25′14″E
темп.,
°C
ветер,
м/с
пор.,
м/с
влажн.,
%
обл.,
%
осадки,
мм/ч
давл.,
гПа
погр.,
м
4 июля, пн
пн400:00+29с3317100 0.0 100213
03:00+27с441999 0.0 100229
06:00+26ссз45245 0.0 100463
09:00+33с66155 0.0 1004999
12:00+37ссз451266 0.0 10022511
15:00+38сз66112 0.0 10003205
18:00+37сз78102 0.0 1000957
21:00+31ссз4411100 0.0 100220
5 июля, вт
вт500:00+29зсз44139 0.0 100214
03:00+27ссз44164 0.0 100228
06:00+26зсз58180 0.0 100497
09:00+34ссз66110 0.0 1004645
12:00+38ссз57100 0.0 10033080
15:00+39ссз7885 0.0 10003468
18:00+37с6895 0.0 1000408
21:00+31ссв331237 0.0 100211
6 июля, ср
ср600:00+30с331296 0.0 100212
03:00+28с3313100 0.0 100211
06:00+27сз441539 0.0 100430
09:00+34с55104 0.0 1004706
12:00+38ссв5695 0.0 10032778
15:00+40с668100 0.0 10013394
18:00+38с67956 0.0 1001309
21:00+32с441323 0.0 100324
7 июля, чт
чт700:00+30ссв441446 0.0 100325
03:00+28ссв441597 0.0 100317
06:00+28всв341573 0.0 100451
09:00+35ссв561081 0.0 1005774
12:00+39св5685 0.0 10032227
15:00+41ссв5585 0.0 10013408
18:00+39ссв57964 0.0 1001208
21:00+33св441298 0.0 100322
8 июля, пт
пт800:00+31св341485 0.0 100314
03:00+29всв34145 0.0 100315
06:00+30в3414100 0.0 100449
09:00+36с331081 0.0 1004889
12:00+40св55773 0.0 10022909
15:00+41ссв55757 0.0 10003450
18:00+39всв679100 0.0 1000632
21:00+34св231224 0.0 100212